{"data":{"norad_id":67236,"epoch":"2026-05-25T04:21:52.006752Z","epoch_age_seconds":55336,"freshness":"FRESH","line1":"1 67236U 25311A   26145.18185193 -.00000093  00000+0  66340-4 0  9995","line2":"2 67236  50.0068 198.0507 0001000 247.6845 112.3922 13.29322678 20287","mean_motion":13.29322678,"eccentricity":0.0001,"inclination_deg":50.0068,"raan_deg":198.0507,"arg_perigee_deg":247.6845,"mean_anomaly_deg":112.3922,"bstar":6.634e-5,"rev_number":2028,"period_min":108.32584321562,"perigee_km":1148.5663670437,"apogee_km":1150.0718582662,"semimajor_km":7527.456112655,"source":"CELESTRAK","updated_at":"2026-05-25T13:38:06.821168Z"}}